Location: Clay (historical)
(35.1476°N, 89.8179°W)
Time: 02:24:29
(UTC+00:00)

Cosmos 2278 - Pass Details

Date: 18 February 2026
Orbit: 839 x 850 km, 71.1° (Epoch: 6 March)

Event Time Altitude Azimuth Distance (km) Brightness Sun altitude
Rises 12:07:26 0° 226° (SW) 3,379 6.5 -7.8°
Reaches altitude 10° 12:10:08 10° 237° (WSW) 2,447 5.7 -7.2°
Maximum altitude 12:15:04 31° 298° (WNW) 1,423 4.4 -6.2°
Drops below altitude 10° 12:20:03 10° 1° (N) 2,458 6.0 -5.2°
Sets 12:22:47 0° 11° (NNE) 3,397 6.9 -4.7°
